Weather History for Perry, FL

Change the Weather History Date:

Saturday, August 3, 2013

  Actual Average (KCTY) Record (KCTY)
Temperature  
Mean Temperature 81 °F 82 °F  
Max Temperature 93 °F 91 °F 98 °F (2011)
Min Temperature 71 °F 72 °F 70 °F (2001)
Degree Days  
Heating Degree Days 0 0  
Month to date heating degree days 0  
Since 1 June heating degree days 0  
Since 1 July heating degree days 0  
Cooling Degree Days 16 17  
Month to date cooling degree days 51  
Year to date cooling degree days 1485  
Since 1 June cooling degree days 1006  
Growing Degree Days 31 (Base 50)    
Moisture  
Dew Point 73 °F    
Average Humidity 80    
Maximum Humidity 100    
Minimum Humidity 52    
Precipitation  
Precipitation 0.05 in 0.24 in 0.91 in (2005)
Month to date precipitation 0.75  
Year to date precipitation 28.67  
Sea Level Pressure  
Sea Level Pressure 30.04 in    
Wind  
Wind Speed 2 mph (WSW)    
Max Wind Speed 16 mph    
Max Gust Speed 22 mph    
Visibility 9 miles    
Events Rain , Thunderstorm    
T = Trace of Precipitation, MM = Missing Value Source: NWS Daily Summary

Daily Weather History Graph

Daily Weather History Graph

Search for Another Location

Airport:

Trip Planner

Search our weather history database for the weather conditions in past years. The results will help you decide how hot, cold, wet, or windy it might be!

Date:

Astronomy

Aug. 03, 2013 Rise Set
Actual Time 6:54 AM EDT 8:25 PM EDT
Civil Twilight 6:28 AM EDT 8:51 PM EDT
Nautical Twilight 5:57 AM EDT 9:22 PM EDT
Astronomical Twilight 5:25 AM EDT 9:54 PM EDT
Moon 4:05 AM EDT (8/3) 6:05 PM EDT (8/3)
Length of Visible Light 14h 23m
Length of Day
13h 31m
Waning Crescent, 9% of the Moon is Illuminated
Aug 3
Waning Crescent
Aug 6
New
Aug 14
First Quarter
Aug 20
Full
Aug 28
Last Quarter

Hourly Weather History & Observations

Time (EDT) Temp. Heat Index Dew Point Humidity Pressure Visibility Wind Dir Wind Speed Gust Speed Precip Events Conditions
12:15 AM 77.0 °F - 73.4 °F 89% 30.05 in 10.0 mi Calm Calm - N/A   Clear
12:35 AM 75.2 °F - 71.6 °F 89% 30.05 in 7.0 mi Calm Calm - N/A   Clear
12:53 AM 77.0 °F - 73.0 °F 88% 30.03 in - Calm Calm - N/A   Unknown
12:55 AM 73.4 °F - 71.6 °F 94% 30.04 in 10.0 mi Calm Calm - N/A   Clear
1:15 AM 75.2 °F - 73.4 °F 94% 30.04 in 10.0 mi NW 3.5 mph - N/A   Clear
1:35 AM 73.4 °F - 71.6 °F 94% 30.03 in 10.0 mi Calm Calm - N/A   Clear
1:53 AM 77.0 °F - 73.0 °F 88% 30.01 in - Calm Calm - N/A   Unknown
1:55 AM 75.2 °F - 73.4 °F 94% 30.03 in 10.0 mi Calm Calm - N/A   Clear
2:15 AM 73.4 °F - 71.6 °F 94% 30.03 in 10.0 mi Calm Calm - N/A   Clear
2:35 AM 73.4 °F - 71.6 °F 94% 30.02 in 10.0 mi Calm Calm - N/A   Clear
2:53 AM 75.9 °F - 73.0 °F 91% 30.01 in - Calm Calm - N/A   Unknown
2:55 AM 73.4 °F - 71.6 °F 94% 30.02 in 10.0 mi Calm Calm - N/A   Clear
3:15 AM 73.4 °F - 71.6 °F 94% 30.02 in 7.0 mi Calm Calm - N/A   Clear
3:35 AM 73.4 °F - 71.6 °F 94% 30.02 in 7.0 mi Calm Calm - N/A   Clear
3:53 AM 75.0 °F - 72.0 °F 90% 30.00 in - Calm Calm - N/A   Unknown
3:55 AM 73.4 °F - 71.6 °F 94% 30.01 in 7.0 mi Calm Calm - N/A   Clear
4:15 AM 73.4 °F - 71.6 °F 94% 30.01 in 10.0 mi Calm Calm - N/A   Clear
4:35 AM 73.4 °F - 71.6 °F 94% 30.01 in 10.0 mi Calm Calm - N/A   Clear
4:53 AM 75.0 °F - 72.0 °F 90% 30.00 in - Calm Calm - N/A   Unknown
4:55 AM 73.4 °F - 71.6 °F 94% 30.01 in 5.0 mi Calm Calm - N/A   Clear
5:15 AM 73.4 °F - 71.6 °F 94% 30.01 in 7.0 mi Calm Calm - N/A   Clear
5:35 AM 71.6 °F - 71.6 °F 100% 30.02 in 4.0 mi Calm Calm - N/A   Clear
5:53 AM 75.0 °F - 72.0 °F 90% 30.01 in - Calm Calm - N/A   Unknown
5:55 AM 73.4 °F - 71.6 °F 94% 30.02 in 5.0 mi Calm Calm - N/A   Scattered Clouds
6:15 AM 71.6 °F - 71.6 °F 100% 30.02 in 5.0 mi Calm Calm - N/A   Scattered Clouds
6:35 AM 73.4 °F - 71.6 °F 94% 30.03 in 5.0 mi Calm Calm - N/A   Mostly Cloudy
6:53 AM 75.0 °F - 72.0 °F 90% 30.02 in - Calm Calm - N/A   Unknown
6:55 AM 73.4 °F - 71.6 °F 94% 30.04 in 7.0 mi Calm Calm - N/A   Overcast
7:15 AM 73.4 °F - 71.6 °F 94% 30.05 in 5.0 mi Calm Calm - N/A   Mostly Cloudy
7:35 AM 73.4 °F - 71.6 °F 94% 30.05 in 5.0 mi Calm Calm - N/A   Scattered Clouds
7:53 AM 77.0 °F - 73.9 °F 90% 30.04 in - Calm Calm - N/A   Unknown
7:55 AM 73.4 °F - 73.4 °F 100% 30.05 in 5.0 mi Calm Calm - N/A   Scattered Clouds
8:15 AM 75.2 °F - 73.4 °F 94% 30.05 in 7.0 mi Calm Calm - N/A   Clear
8:35 AM 77.0 °F - 75.2 °F 94% 30.05 in 10.0 mi Calm Calm - N/A   Clear
8:53 AM 82.0 °F 89.4 °F 75.9 °F 82% 30.04 in - WNW 3.5 mph - N/A   Unknown
8:55 AM 78.8 °F - 77.0 °F 94% 30.06 in 10.0 mi NW 3.5 mph - N/A   Clear
9:15 AM 80.6 °F 87.1 °F 77.0 °F 89% 30.06 in 10.0 mi NW 5.8 mph - N/A   Clear
9:35 AM 82.4 °F 89.5 °F 75.2 °F 79% 30.07 in 10.0 mi WNW 4.6 mph - N/A   Clear
9:53 AM 84.9 °F 93.3 °F 75.0 °F 72% 30.05 in - NW 5.8 mph - N/A   Unknown
9:55 AM 82.4 °F 89.5 °F 75.2 °F 79% 30.07 in 10.0 mi NW 5.8 mph - N/A   Scattered Clouds
10:15 AM 84.2 °F 90.9 °F 73.4 °F 70% 30.07 in 10.0 mi WNW 6.9 mph - N/A   Scattered Clouds
10:35 AM 84.2 °F 90.9 °F 73.4 °F 70% 30.07 in 10.0 mi WNW 5.8 mph - N/A   Mostly Cloudy
10:53 AM 86.0 °F 93.8 °F 73.9 °F 67% 30.06 in - WNW 6.9 mph - N/A   Unknown
10:55 AM 86.0 °F 93.4 °F 73.4 °F 66% 30.07 in 10.0 mi NW 5.8 mph - N/A   Scattered Clouds
11:15 AM 84.2 °F 89.6 °F 71.6 °F 66% 30.07 in 10.0 mi NW 5.8 mph - N/A   Scattered Clouds
11:35 AM 86.0 °F 91.8 °F 71.6 °F 62% 30.08 in 10.0 mi WSW 4.6 mph - N/A   Mostly Cloudy
11:53 AM 89.1 °F 99.1 °F 75.0 °F 63% 30.06 in - South 9.2 mph - N/A   Unknown
11:55 AM 86.0 °F 93.4 °F 73.4 °F 66% 30.07 in 10.0 mi SSW 9.2 mph - N/A   Scattered Clouds
12:15 PM 86.0 °F 93.4 °F 73.4 °F 66% 30.07 in 10.0 mi SW 6.9 mph - N/A   Mostly Cloudy
12:35 PM 87.8 °F 95.6 °F 73.4 °F 62% 30.07 in 10.0 mi SSW 6.9 mph - N/A   Scattered Clouds
12:53 PM 90.0 °F 99.0 °F 73.9 °F 59% 30.06 in - WSW 4.6 mph - N/A   Unknown
12:55 PM 87.8 °F 95.6 °F 73.4 °F 62% 30.07 in 10.0 mi SW 4.6 mph - N/A   Scattered Clouds
1:15 PM 82.4 °F 88.2 °F 73.4 °F 74% 30.08 in 5.0 mi SSW 3.5 mph - 0.05 in Rain Light Rain
1:35 PM 84.2 °F 92.3 °F 75.2 °F 74% 30.07 in 10.0 mi SSW 3.5 mph - 0.05 in Rain Light Rain
1:53 PM 90.0 °F 102.5 °F 77.0 °F 65% 30.05 in - South 5.8 mph - 0.05 in   Unknown
1:55 PM 87.8 °F 95.6 °F 73.4 °F 62% 30.06 in 10.0 mi South 4.6 mph - 0.05 in   Scattered Clouds
2:15 PM 87.8 °F 95.6 °F 73.4 °F 62% 30.06 in 10.0 mi SW 8.1 mph - N/A   Mostly Cloudy
2:35 PM 87.8 °F 95.6 °F 73.4 °F 62% 30.05 in 10.0 mi SW 8.1 mph - N/A   Overcast
2:53 PM 91.9 °F 99.5 °F 72.0 °F 52% 30.03 in - SW 8.1 mph - N/A   Unknown
2:55 PM 89.6 °F 96.2 °F 71.6 °F 55% 30.05 in 10.0 mi WSW 8.1 mph - N/A   Scattered Clouds
3:15 PM 89.6 °F 96.2 °F 71.6 °F 55% 30.04 in 10.0 mi WSW 11.5 mph 18.4 mph N/A   Clear
3:35 PM 89.6 °F 96.2 °F 71.6 °F 55% 30.02 in 10.0 mi WSW 13.8 mph 18.4 mph N/A   Scattered Clouds
3:53 PM 90.0 °F 99.0 °F 73.9 °F 59% 30.02 in - SW 15.0 mph - N/A   Unknown
3:55 PM 87.8 °F 95.6 °F 73.4 °F 62% 30.03 in 10.0 mi WSW 15.0 mph 18.4 mph N/A Thunderstorm Mostly Cloudy
4:15 PM 87.8 °F 93.8 °F 71.6 °F 58% 30.04 in 10.0 mi WSW 12.7 mph 19.6 mph N/A Thunderstorm Overcast
4:35 PM 87.8 °F 95.6 °F 73.4 °F 62% 30.04 in 10.0 mi WNW 16.1 mph 21.9 mph N/A   Overcast
4:44 PM 80.6 °F 84.6 °F 71.6 °F 74% 30.03 in - WNW 10.4 mph 21.9 mph N/A   Unknown
4:53 PM 81.0 °F 85.8 °F 73.0 °F 77% 30.02 in - NW 8.1 mph - N/A   Unknown
4:55 PM 78.8 °F - 71.6 °F 78% 30.04 in 10.0 mi NW 8.1 mph - N/A   Mostly Cloudy
5:15 PM 78.8 °F - 73.4 °F 83% 30.04 in 10.0 mi West 5.8 mph - N/A Rain Light Rain
5:35 PM 78.8 °F - 73.4 °F 83% 30.04 in 10.0 mi NW 6.9 mph - N/A   Mostly Cloudy
5:53 PM 82.0 °F 87.9 °F 73.9 °F 76% 30.02 in - WSW 5.8 mph - N/A   Unknown
5:55 PM 80.6 °F 85.4 °F 73.4 °F 79% 30.03 in 10.0 mi West 5.8 mph - N/A   Scattered Clouds
6:15 PM 80.6 °F 85.4 °F 73.4 °F 79% 30.03 in 10.0 mi Calm Calm - N/A   Scattered Clouds
6:35 PM 82.4 °F 88.2 °F 73.4 °F 74% 30.02 in 10.0 mi SW 5.8 mph - N/A   Mostly Cloudy
6:53 PM 84.9 °F 92.1 °F 73.9 °F 69% 30.01 in - SW 6.9 mph - N/A   Unknown
6:55 PM 82.4 °F 88.2 °F 73.4 °F 74% 30.02 in 10.0 mi SW 5.8 mph - N/A   Mostly Cloudy
7:15 PM 82.4 °F 88.2 °F 73.4 °F 74% 30.02 in 10.0 mi WSW 4.6 mph - N/A   Scattered Clouds
7:35 PM 82.4 °F 88.2 °F 73.4 °F 74% 30.03 in 10.0 mi West 6.9 mph - N/A   Scattered Clouds
7:53 PM 84.0 °F 91.9 °F 75.0 °F 74% 30.02 in - WSW 6.9 mph - N/A   Unknown
7:55 PM 82.4 °F 88.2 °F 73.4 °F 74% 30.03 in 10.0 mi West 5.8 mph - N/A   Clear
8:15 PM 80.6 °F 85.4 °F 73.4 °F 79% 30.03 in 10.0 mi West 5.8 mph - N/A   Clear
8:35 PM 80.6 °F 85.4 °F 73.4 °F 79% 30.04 in 10.0 mi WSW 5.8 mph - N/A   Clear
8:53 PM 81.0 °F 86.7 °F 75.0 °F 82% 30.04 in - West 5.8 mph - N/A   Unknown
8:55 PM 78.8 °F - 73.4 °F 83% 30.05 in 10.0 mi West 4.6 mph - N/A   Clear
9:15 PM 78.8 °F - 73.4 °F 83% 30.05 in 10.0 mi Calm Calm - N/A   Clear
9:35 PM 78.8 °F - 73.4 °F 83% 30.07 in 10.0 mi Calm Calm - N/A   Clear
9:53 PM 80.1 °F 85.1 °F 75.0 °F 85% 30.06 in - Calm Calm - N/A   Unknown
9:55 PM 78.8 °F - 73.4 °F 83% 30.08 in 10.0 mi Calm Calm - N/A   Clear
10:15 PM 78.8 °F - 73.4 °F 83% 30.08 in 10.0 mi Calm Calm - N/A   Clear
10:35 PM 78.8 °F - 73.4 °F 83% 30.08 in 10.0 mi Calm Calm - N/A   Clear
10:53 PM 80.1 °F 85.1 °F 75.0 °F 85% 30.07 in - Calm Calm - N/A   Unknown
10:55 PM 78.8 °F - 73.4 °F 83% 30.08 in 10.0 mi Calm Calm - N/A   Clear
11:15 PM 77.0 °F - 73.4 °F 89% 30.08 in 10.0 mi Calm Calm - N/A   Clear
11:35 PM 77.0 °F - 73.4 °F 89% 30.08 in 10.0 mi Calm Calm - N/A   Clear
11:53 PM 78.1 °F - 75.0 °F 90% 30.06 in - SW 3.5 mph - N/A   Unknown
11:55 PM 77.0 °F - 73.4 °F 89% 30.08 in 10.0 mi Calm Calm - N/A   Clear